Time,TemperatureF,DewpointF,PressureIn,WindDirection,WindDirectionDegrees,WindSpeedMPH,WindSpeedGustMPH,Humidity,HourlyPrecipIn,Conditions,Clouds,dailyrainin,SoftwareType,DateUTC
2013-01-18 00:00:00,14.9,11.7,30.01,ENE,67,2.7,-999.0,87,-99.99,,,0.00,Acu-Link.com,2013-01-18 05:00:00,
2013-01-18 00:16:00,14.9,12.0,30.02,WNW,292,0.0,-999.0,88,-99.99,,,0.00,Acu-Link.com,2013-01-18 05:16:00,
2013-01-18 00:31:00,14.7,11.8,30.04,ESE,112,0.0,-999.0,88,-99.99,,,0.00,Acu-Link.com,2013-01-18 05:31:00,
2013-01-18 00:46:00,14.5,11.6,30.04,South,180,0.0,-999.0,88,-99.99,,,0.00,Acu-Link.com,2013-01-18 05:46:00,
2013-01-18 01:02:00,14.7,11.8,30.05,West,270,0.0,-999.0,88,-99.99,,,0.00,Acu-Link.com,2013-01-18 06:02:00,
2013-01-18 01:17:00,15.3,12.4,30.06,West,270,1.1,-999.0,88,-99.99,,,0.00,Acu-Link.com,2013-01-18 06:17:00,
2013-01-18 01:34:00,15.3,12.7,30.06,WNW,292,0.0,-999.0,89,-99.99,,,0.00,Acu-Link.com,2013-01-18 06:34:00,
2013-01-18 01:49:00,15.3,12.7,30.06,NNE,22,0.0,-999.0,89,-99.99,,,0.00,Acu-Link.com,2013-01-18 06:49:00,
2013-01-18 02:04:00,15.1,12.5,30.07,WNW,292,0.0,-999.0,89,-99.99,,,0.00,Acu-Link.com,2013-01-18 07:04:00,
2013-01-18 02:20:00,15.1,12.5,30.09,South,180,0.0,-999.0,89,-99.99,,,0.00,Acu-Link.com,2013-01-18 07:20:00,
2013-01-18 02:35:00,15.1,12.5,30.11,WSW,247,1.7,-999.0,89,-99.99,,,0.00,Acu-Link.com,2013-01-18 07:35:00,
2013-01-18 02:50:00,15.4,12.7,30.11,West,270,1.7,-999.0,89,-99.99,,,0.00,Acu-Link.com,2013-01-18 07:50:00,
2013-01-18 03:06:00,15.6,13.2,30.11,West,270,1.1,-999.0,90,-99.99,,,0.00,Acu-Link.com,2013-01-18 08:06:00,
2013-01-18 03:21:00,15.8,13.4,30.12,WNW,292,0.0,-999.0,90,-99.99,,,0.00,Acu-Link.com,2013-01-18 08:21:00,
2013-01-18 03:36:00,15.8,13.4,30.13,WSW,247,0.0,-999.0,90,-99.99,,,0.00,Acu-Link.com,2013-01-18 08:36:00,
2013-01-18 03:52:00,14.2,11.6,30.12,WSW,247,0.0,-999.0,89,-99.99,,,0.00,Acu-Link.com,2013-01-18 08:52:00,
2013-01-18 04:07:00,13.5,10.9,30.12,South,180,0.0,-999.0,89,-99.99,,,0.00,Acu-Link.com,2013-01-18 09:07:00,
2013-01-18 04:22:00,13.6,11.2,30.12,SSW,202,0.0,-999.0,90,-99.99,,,0.00,Acu-Link.com,2013-01-18 09:22:00,
2013-01-18 04:38:00,14.7,12.6,30.14,WSW,247,0.0,-999.0,91,-99.99,,,0.00,Acu-Link.com,2013-01-18 09:38:00,
2013-01-18 04:53:00,15.4,13.0,30.14,West,270,1.7,-999.0,90,-99.99,,,0.00,Acu-Link.com,2013-01-18 09:53:00,
2013-01-18 05:08:00,15.6,13.5,30.15,SW,225,2.2,-999.0,91,-99.99,,,0.00,Acu-Link.com,2013-01-18 10:08:00,
2013-01-18 05:24:00,15.6,12.9,30.16,WSW,247,1.7,-999.0,89,-99.99,,,0.00,Acu-Link.com,2013-01-18 10:24:00,
2013-01-18 05:39:00,15.4,12.5,30.17,WSW,247,2.2,-999.0,88,-99.99,,,0.00,Acu-Link.com,2013-01-18 10:39:00,
2013-01-18 05:54:00,15.1,11.9,30.18,West,270,2.2,-999.0,87,-99.99,,,0.00,Acu-Link.com,2013-01-18 10:54:00,
2013-01-18 06:09:00,14.9,11.5,30.18,West,270,2.2,-999.0,86,-99.99,,,0.00,Acu-Link.com,2013-01-18 11:09:00,
2013-01-18 06:24:00,14.7,10.8,30.19,West,270,3.7,-999.0,84,-99.99,,,0.00,Acu-Link.com,2013-01-18 11:24:00,
2013-01-18 06:40:00,14.4,10.5,30.20,West,270,1.7,-999.0,84,-99.99,,,0.00,Acu-Link.com,2013-01-18 11:40:00,
2013-01-18 06:55:00,14.0,9.8,30.21,West,270,1.7,-999.0,83,-99.99,,,0.00,Acu-Link.com,2013-01-18 11:55:00,
2013-01-18 07:11:00,12.9,8.5,30.21,West,270,0.0,-999.0,82,-99.99,,,0.00,Acu-Link.com,2013-01-18 12:11:00,
2013-01-18 07:26:00,12.7,8.3,30.21,SW,225,1.7,-999.0,82,-99.99,,,0.00,Acu-Link.com,2013-01-18 12:26:00,
2013-01-18 07:41:00,12.7,8.0,30.22,West,270,2.2,-999.0,81,-99.99,,,0.00,Acu-Link.com,2013-01-18 12:41:00,
2013-01-18 07:57:00,12.6,7.9,30.21,West,270,1.7,-999.0,81,-99.99,,,0.00,Acu-Link.com,2013-01-18 12:57:00,
2013-01-18 08:12:00,12.4,7.7,30.21,WSW,247,1.1,-999.0,81,-99.99,,,0.00,Acu-Link.com,2013-01-18 13:12:00,
2013-01-18 08:27:00,12.9,7.9,30.22,South,180,2.2,-999.0,80,-99.99,,,0.00,Acu-Link.com,2013-01-18 13:27:00,
2013-01-18 08:42:00,14.9,9.6,30.22,West,270,1.7,-999.0,79,-99.99,,,0.00,Acu-Link.com,2013-01-18 13:42:00,
2013-01-18 08:58:00,15.6,10.0,30.23,WSW,247,0.0,-999.0,78,-99.99,,,0.00,Acu-Link.com,2013-01-18 13:58:00,
2013-01-18 09:13:00,16.7,11.1,30.23,WSW,247,2.2,-999.0,78,-99.99,,,0.00,Acu-Link.com,2013-01-18 14:13:00,
2013-01-18 09:28:00,19.0,12.1,30.24,ENE,67,2.7,-999.0,74,-99.99,,,0.00,Acu-Link.com,2013-01-18 14:28:00,
2013-01-18 09:44:00,20.7,13.4,30.24,WNW,292,2.7,-999.0,73,-99.99,,,0.00,Acu-Link.com,2013-01-18 14:44:00,
2013-01-18 09:59:00,21.6,13.7,30.25,SW,225,5.3,-999.0,71,-99.99,,,0.00,Acu-Link.com,2013-01-18 14:59:00,
2013-01-18 10:14:00,22.6,13.0,30.22,WNW,292,2.7,-999.0,66,-99.99,,,0.00,Acu-Link.com,2013-01-18 15:14:00,
2013-01-18 10:30:00,25.2,14.8,30.21,SW,225,3.7,-999.0,64,-99.99,,,0.00,Acu-Link.com,2013-01-18 15:30:00,
2013-01-18 10:45:00,26.4,15.2,30.19,SW,225,3.7,-999.0,62,-99.99,,,0.00,Acu-Link.com,2013-01-18 15:45:00,
2013-01-18 11:00:00,26.4,14.0,30.20,WSW,247,3.2,-999.0,59,-99.99,,,0.00,Acu-Link.com,2013-01-18 16:00:00,
2013-01-18 11:15:00,23.7,10.7,30.20,West,270,4.7,-999.0,57,-99.99,,,0.00,Acu-Link.com,2013-01-18 16:15:00,
2013-01-18 11:31:00,24.4,10.6,30.20,SW,225,2.7,-999.0,55,-99.99,,,0.00,Acu-Link.com,2013-01-18 16:31:00,
2013-01-18 11:46:00,26.8,12.0,30.20,SW,225,5.3,-999.0,53,-99.99,,,0.00,Acu-Link.com,2013-01-18 16:46:00,
2013-01-18 12:01:00,25.9,11.2,30.18,West,270,4.7,-999.0,53,-99.99,,,0.00,Acu-Link.com,2013-01-18 17:01:00,
2013-01-18 12:17:00,25.0,11.1,30.19,WSW,247,4.2,-999.0,55,-99.99,,,0.00,Acu-Link.com,2013-01-18 17:17:00,
2013-01-18 12:32:00,28.0,13.5,30.18,SSW,202,5.8,-999.0,54,-99.99,,,0.00,Acu-Link.com,2013-01-18 17:32:00,
2013-01-18 12:47:00,24.1,11.5,30.16,SW,225,3.7,-999.0,58,-99.99,,,0.00,Acu-Link.com,2013-01-18 17:47:00,
2013-01-18 13:03:00,27.1,13.5,30.15,SW,225,3.7,-999.0,56,-99.99,,,0.00,Acu-Link.com,2013-01-18 18:03:00,
2013-01-18 13:18:00,25.9,13.2,30.14,SW,225,3.2,-999.0,58,-99.99,,,0.00,Acu-Link.com,2013-01-18 18:18:00,
2013-01-18 13:33:00,26.2,14.2,30.13,WSW,247,3.7,-999.0,60,-99.99,,,0.00,Acu-Link.com,2013-01-18 18:33:00,
2013-01-18 13:49:00,26.8,14.4,30.14,WNW,292,8.3,-999.0,59,-99.99,,,0.00,Acu-Link.com,2013-01-18 18:49:00,
2013-01-18 14:04:00,26.1,14.9,30.14,SSW,202,6.3,-999.0,62,-99.99,,,0.00,Acu-Link.com,2013-01-18 19:04:00,
2013-01-18 14:19:00,26.4,15.2,30.12,SW,225,4.7,-999.0,62,-99.99,,,0.00,Acu-Link.com,2013-01-18 19:19:00,
2013-01-18 14:35:00,25.7,15.2,30.12,WSW,247,5.8,-999.0,64,-99.99,,,0.00,Acu-Link.com,2013-01-18 19:35:00,
2013-01-18 14:50:00,25.9,15.8,30.10,SSW,202,3.7,-999.0,65,-99.99,,,0.00,Acu-Link.com,2013-01-18 19:50:00,
2013-01-18 15:05:00,26.6,16.8,30.10,West,270,3.2,-999.0,66,-99.99,,,0.00,Acu-Link.com,2013-01-18 20:05:00,
2013-01-18 15:20:00,26.4,17.0,30.08,West,270,5.3,-999.0,67,-99.99,,,0.00,Acu-Link.com,2013-01-18 20:20:00,
2013-01-18 15:36:00,26.4,17.3,30.08,SSW,202,2.7,-999.0,68,-99.99,,,0.00,Acu-Link.com,2013-01-18 20:36:00,
2013-01-18 15:51:00,26.4,17.6,30.07,South,180,5.3,-999.0,69,-99.99,,,0.00,Acu-Link.com,2013-01-18 20:51:00,
2013-01-18 16:06:00,26.6,17.8,30.06,West,270,3.2,-999.0,69,-99.99,,,0.00,Acu-Link.com,2013-01-18 21:06:00,
2013-01-18 16:21:00,26.6,17.8,30.05,WSW,247,5.3,-999.0,69,-99.99,,,0.00,Acu-Link.com,2013-01-18 21:21:00,
2013-01-18 16:37:00,26.6,18.5,30.04,SE,135,2.7,-999.0,71,-99.99,,,0.00,Acu-Link.com,2013-01-18 21:37:00,
2013-01-18 16:52:00,26.6,19.1,30.04,SSW,202,4.2,-999.0,73,-99.99,,,0.00,Acu-Link.com,2013-01-18 21:52:00,
2013-01-18 17:07:00,26.6,18.5,30.03,West,270,3.7,-999.0,71,-99.99,,,0.00,Acu-Link.com,2013-01-18 22:07:00,
2013-01-18 17:22:00,26.2,16.4,30.04,SSW,202,4.7,-999.0,66,-99.99,,,0.00,Acu-Link.com,2013-01-18 22:22:00,
2013-01-18 17:38:00,26.1,16.0,30.02,SSW,202,3.7,-999.0,65,-99.99,,,0.00,Acu-Link.com,2013-01-18 22:38:00,
2013-01-18 17:53:00,25.9,15.4,30.02,South,180,6.8,-999.0,64,-99.99,,,0.00,Acu-Link.com,2013-01-18 22:53:00,
2013-01-18 18:08:00,25.9,15.4,30.01,SW,225,2.7,-999.0,64,-99.99,,,0.00,Acu-Link.com,2013-01-18 23:08:00,
2013-01-18 18:24:00,25.9,15.8,30.00,ESE,112,2.7,-999.0,65,-99.99,,,0.00,Acu-Link.com,2013-01-18 23:24:00,
2013-01-18 18:39:00,26.4,16.3,29.99,South,180,2.2,-999.0,65,-99.99,,,0.00,Acu-Link.com,2013-01-18 23:39:00,
2013-01-18 18:54:00,26.6,16.4,29.98,SSW,202,2.2,-999.0,65,-99.99,,,0.00,Acu-Link.com,2013-01-18 23:54:00,
2013-01-18 19:10:00,26.6,16.4,29.98,SSE,157,2.2,-999.0,65,-99.99,,,0.00,Acu-Link.com,2013-01-19 00:10:00,
2013-01-18 19:25:00,26.8,16.6,29.96,South,180,2.7,-999.0,65,-99.99,,,0.00,Acu-Link.com,2013-01-19 00:25:00,
2013-01-18 19:40:00,27.0,16.8,29.95,East,90,4.7,-999.0,65,-99.99,,,0.00,Acu-Link.com,2013-01-19 00:40:00,
2013-01-18 19:56:00,27.9,17.3,29.94,SSE,157,5.3,-999.0,64,-99.99,,,0.00,Acu-Link.com,2013-01-19 00:56:00,
2013-01-18 20:11:00,27.7,17.1,29.91,SW,225,6.3,-999.0,64,-99.99,,,0.00,Acu-Link.com,2013-01-19 01:11:00,
2013-01-18 20:26:00,27.9,17.3,29.91,SSW,202,4.2,-999.0,64,-99.99,,,0.00,Acu-Link.com,2013-01-19 01:26:00,
2013-01-18 20:41:00,28.4,17.8,29.90,SSE,157,5.8,-999.0,64,-99.99,,,0.00,Acu-Link.com,2013-01-19 01:41:00,
2013-01-18 20:57:00,28.4,17.8,29.88,SW,225,4.7,-999.0,64,-99.99,,,0.00,Acu-Link.com,2013-01-19 01:57:00,
2013-01-18 21:12:00,28.6,18.4,29.88,SW,225,2.2,-999.0,65,-99.99,,,0.00,Acu-Link.com,2013-01-19 02:12:00,
2013-01-18 21:27:00,29.1,18.8,29.86,SSW,202,8.3,-999.0,65,-99.99,,,0.00,Acu-Link.com,2013-01-19 02:27:00,
2013-01-18 21:42:00,30.2,19.9,29.86,SSW,202,3.2,-999.0,65,-99.99,,,0.00,Acu-Link.com,2013-01-19 02:42:00,
2013-01-18 21:57:00,30.7,20.4,29.85,SSW,202,6.3,-999.0,65,-99.99,,,0.00,Acu-Link.com,2013-01-19 02:57:00,
2013-01-18 22:13:00,31.5,20.7,29.83,South,180,4.7,-999.0,64,-99.99,,,0.00,Acu-Link.com,2013-01-19 03:13:00,
2013-01-18 22:28:00,31.3,20.9,29.84,SW,225,4.7,-999.0,65,-99.99,,,0.00,Acu-Link.com,2013-01-19 03:28:00,
2013-01-18 22:43:00,32.2,21.8,29.85,SW,225,4.7,-999.0,65,-99.99,,,0.00,Acu-Link.com,2013-01-19 03:43:00,
2013-01-18 22:59:00,32.5,22.1,29.84,SW,225,3.7,-999.0,65,-99.99,,,0.00,Acu-Link.com,2013-01-19 03:59:00,
2013-01-18 23:14:00,32.7,22.3,29.83,SW,225,4.7,-999.0,65,-99.99,,,0.00,Acu-Link.com,2013-01-19 04:14:00,
2013-01-18 23:29:00,33.3,22.8,29.81,North,0,6.3,-999.0,65,-99.99,,,0.00,Acu-Link.com,2013-01-19 04:29:00,
2013-01-18 23:45:00,33.3,22.5,29.82,SSE,157,4.7,-999.0,64,-99.99,,,0.00,Acu-Link.com,2013-01-19 04:45:00,